Flag Weather past 2 weeks in Larnaca, Cyprus

Now
64 °F

Passing clouds.


Feels Like: 64 °F
Forecast: 58 / 72 °F
Wind: 7 mph from Northwest

Location: Larnaca Airport

Current Time: Oct 31, 2014 at 9:35:05 PM

Latest Report: Oct 31, 2014 at 9:00 PM


Visibility: N/A

Pressure: 29.89 "Hg

Humidity: 73%

Dew point: 55 °F

Location of LarnacaLocation

Historic Weather in Larnaca — Graph

°F

Larnaca temperature yesterday

Maximum temperature yesterday: 77 °F (at 11:00 AM)
Minimum temperature yesterday: 61 °F (at 8:00 PM)
Average temperature yesterday: 66 °F

Past Weeks' High & Low Weather Summary

 TemperatureHumidityPressure
High82 °F (Oct 17, 12:30 PM)94% (Oct 27, 3:00 AM)30.07 "Hg (Oct 27, 3:00 AM)
Low55 °F (Oct 21, 7:00 AM)17% (Oct 20, 2:30 PM)29.77 "Hg (Oct 19, 4:00 AM)
Average70 °F64%29.96 "Hg
* Reported Oct 16 9:00 PM — Oct 31 8:30 PM, Larnaca, Weather by CustomWeather, © 2014

Note: Actual official high and low records may vary slightly from our data, if they occured in-between our weather recording intervals... More about our weather records

Advertising

Larnaca weather history for previous 24 hours

 ConditionsComfort  
Time TempWeatherWind HumidityBarometerVisibility
8:30 PM
Oct 31
64 °FPassing clouds.6 mph78%29.89 "HgN/A
8:00 PM64 °FPassing clouds.5 mph78%29.89 "HgN/A
7:30 PM64 °FPassing clouds.6 mph78%29.89 "HgN/A
7:00 PM66 °FPassing clouds.3 mph73%29.89 "HgN/A
6:30 PM66 °FPassing clouds.3 mph73%29.89 "HgN/A
6:00 PM68 °FPassing clouds.6 mph64%29.86 "HgN/A
5:30 PM70 °FPassing clouds.6 mph60%29.86 "HgN/A
5:00 PM70 °FPassing clouds.7 mph64%29.86 "HgN/A
4:30 PM72 °FPassing clouds.6 mph65%29.86 "HgN/A
4:00 PM73 °FThunderstorms. Scattered clouds.3 mph57%29.86 "HgN/A
3:30 PM73 °FThunderstorms. Scattered clouds.3 mph53%29.86 "HgN/A
3:00 PM77 °FScattered showers. Passing clouds.3 mph47%29.86 "HgN/A
2:30 PM75 °FPassing clouds.5 mph50%29.83 "HgN/A
2:00 PM75 °FPassing clouds.5 mph44%29.83 "HgN/A
1:30 PM75 °FPassing clouds.3 mph44%29.83 "HgN/A
1:00 PM75 °FScattered clouds.2 mph57%29.83 "HgN/A
12:30 PM70 °FThunderstorms. Passing clouds.1 mph69%29.86 "HgN/A
12:00 PM72 °FThunderstorms. Scattered clouds.2 mph65%29.86 "HgN/A
11:30 AM73 °FThunderstorms. Scattered clouds.7 mph57%29.86 "HgN/A
11:00 AM73 °FPassing clouds.5 mph57%29.86 "HgN/A
10:30 AM73 °FPassing clouds.5 mph53%29.89 "HgN/A
10:00 AM73 °FPassing clouds.5 mph57%29.89 "HgN/A
9:30 AM73 °FPassing clouds.3 mph57%29.89 "HgN/A
9:00 AM73 °FPassing clouds.2 mph53%29.89 "HgN/A
8:30 AM70 °FPassing clouds.5 mph64%29.89 "HgN/A
8:00 AM66 °FPassing clouds.5 mph68%29.89 "HgN/A
7:30 AM63 °FPassing clouds.7 mph73%29.89 "HgN/A
7:00 AM61 °FPassing clouds.5 mph72%29.89 "HgN/A
6:30 AM59 °FPassing clouds.3 mph77%29.86 "HgN/A
6:00 AM57 °FPassing clouds.7 mph82%29.86 "HgN/A
5:30 AM59 °FPassing clouds.5 mph77%29.86 "HgN/A
5:00 AM59 °FPassing clouds.3 mph77%29.86 "HgN/A
4:30 AM59 °FPassing clouds.6 mph82%29.86 "HgN/A
4:00 AM59 °FPassing clouds.6 mph82%29.86 "HgN/A
3:30 AM59 °FPassing clouds.7 mph82%29.86 "HgN/A
3:00 AM59 °FPassing clouds.6 mph82%29.89 "HgN/A
2:30 AM59 °FPassing clouds.8 mph82%29.89 "HgN/A
2:00 AM59 °FPassing clouds.7 mph82%29.89 "HgN/A
1:30 AM59 °FPassing clouds.5 mph88%29.89 "HgN/A
1:00 AM61 °FPassing clouds.6 mph83%29.89 "HgN/A
12:30 AM61 °FPassing clouds.6 mph83%29.89 "HgN/A
12:00 AM61 °FPassing clouds.5 mph83%29.89 "HgN/A
11:30 PM
Oct 30
61 °FPassing clouds.6 mph83%29.89 "HgN/A
11:00 PM61 °FPassing clouds.6 mph83%29.89 "HgN/A
10:30 PM61 °FPassing clouds.7 mph83%29.89 "HgN/A
10:00 PM64 °FPassing clouds.8 mph73%29.92 "HgN/A
9:30 PM63 °FPassing clouds.7 mph83%29.92 "HgN/A
9:00 PM61 °FPassing clouds.8 mph88%29.92 "HgN/A
Weather by CustomWeather, © 2014

See weather overviewHow to use our weather pages